,,,PA_Meas_PMT16A,,PR_Meas_QMR101_102,,RH_Meas_QMH101,,SR_Meas_QMS101,,TA_Meas_QMH101,,GenWind,,GenWind,
date,time,status,PA,status,PR,status,RH,status,SR,status,TA,status,DirAvg,status,SpdAvg,
2012-05-17, 00:00:04,VALID,1008.54,VALID,0,VALID,104,VALID,0.112112,VALID,24.5125,VALID,295,VALID,0,
2012-05-17, 00:01:04,VALID,1008.52,VALID,0,VALID,104,VALID,0,VALID,24.493,VALID,295,VALID,0,
2012-05-17, 00:02:04,VALID,1008.54,VALID,0,VALID,104,VALID,0,VALID,24.4717,VALID,295,VALID,0,
2012-05-17, 00:03:04,VALID,1008.5,VALID,0,VALID,104,VALID,0,VALID,24.4735,VALID,295,VALID,0,
2012-05-17, 00:04:04,VALID,1008.5,VALID,0,VALID,104,VALID,0,VALID,24.454,VALID,295,VALID,0,
2012-05-17, 00:05:04,VALID,1008.49,VALID,0,VALID,104,VALID,0,VALID,24.3937,VALID,295,VALID,0,
2012-05-17, 00:06:04,VALID,1008.51,VALID,0,VALID,104,VALID,0,VALID,24.415,VALID,295,VALID,0,
2012-05-17, 00:07:04,VALID,1008.5,VALID,0,VALID,104,VALID,0,VALID,24.3742,VALID,295,VALID,0,
2012-05-17, 00:08:04,VALID,1008.46,VALID,0,VALID,104,VALID,0,VALID,24.3742,VALID,295,VALID,0,
2012-05-17, 00:09:04,VALID,1008.45,VALID,0,VALID,104,VALID,0,VALID,24.3956,VALID,295,VALID,0,
2012-05-17, 00:10:04,VALID,1008.41,VALID,0,VALID,104,VALID,0.112112,VALID,24.3937,VALID,295,VALID,0,
2012-05-17, 00:11:04,VALID,1008.4,VALID,0,VALID,104,VALID,0.112112,VALID,24.3761,VALID,295,VALID,0,
2012-05-17, 00:12:04,VALID,1008.4,VALID,0,VALID,104,VALID,0,VALID,24.3352,VALID,295,VALID,0,
2012-05-17, 00:13:04,VALID,1008.38,VALID,0,VALID,104,VALID,0,VALID,24.3371,VALID,295,VALID,0,
2012-05-17, 00:14:04,VALID,1008.37,VALID,0,VALID,104,VALID,0,VALID,24.2981,VALID,295,VALID,0,
2012-05-17, 00:15:04,VALID,1008.38,VALID,0,VALID,104,VALID,0,VALID,24.2786,VALID,295,VALID,0,
2012-05-17, 00:16:04,VALID,1008.36,VALID,0,VALID,104,VALID,0,VALID,24.2786,VALID,295,VALID,0,
2012-05-17, 00:17:04,VALID,1008.33,VALID,0,VALID,104,VALID,0,VALID,24.2573,VALID,295,VALID,0,
2012-05-17, 00:18:04,VALID,1008.33,VALID,0,VALID,104,VALID,0,VALID,24.2378,VALID,295,VALID,0,
2012-05-17, 00:19:04,VALID,1008.31,VALID,0,VALID,104,VALID,0,VALID,24.2591,VALID,295,VALID,0,
2012-05-17, 00:20:04,VALID,1008.29,VALID,0,VALID,104,VALID,0,VALID,24.2786,VALID,295,VALID,0,
2012-05-17, 00:21:04,VALID,1008.29,VALID,0,VALID,104,VALID,0.112112,VALID,24.2378,VALID,295,VALID,0,
2012-05-17, 00:22:04,VALID,1008.26,VALID,0,VALID,104,VALID,0,VALID,24.2591,VALID,295,VALID,0,
2012-05-17, 00:23:04,VALID,1008.27,VALID,0,VALID,104,VALID,0.112112,VALID,24.2378,VALID,295,VALID,0,
2012-05-17, 00:24:04,VALID,1008.25,VALID,0,VALID,104,VALID,0.112112,VALID,24.2396,VALID,295,VALID,0,
2012-05-17, 00:25:04,VALID,1008.25,VALID,0,VALID,104,VALID,0,VALID,24.2007,VALID,295,VALID,0,
2012-05-17, 00:26:04,VALID,1008.25,VALID,0,VALID,104,VALID,0,VALID,24.1617,VALID,295,VALID,0,
2012-05-17, 00:27:04,VALID,1008.25,VALID,0,VALID,104,VALID,0.112112,VALID,24.1404,VALID,295,VALID,0,
2012-05-17, 00:28:04,VALID,1008.26,VALID,0,VALID,104,VALID,0,VALID,24.1422,VALID,295,VALID,0,
2012-05-17, 00:29:04,VALID,1008.26,VALID,0,VALID,104,VALID,0.112112,VALID,24.1227,VALID,295,VALID,0,
2012-05-17, 00:30:04,VALID,1008.24,VALID,0,VALID,104,VALID,0,VALID,24.1227,VALID,295,VALID,0,
2012-05-17, 00:31:04,VALID,1008.21,VALID,0,VALID,104,VALID,0,VALID,24.1227,VALID,295,VALID,0,
2012-05-17, 00:32:04,VALID,1008.19,VALID,0,VALID,104,VALID,0.112112,VALID,24.1227,VALID,295,VALID,0,
2012-05-17, 00:33:04,VALID,1008.19,VALID,0,VALID,104,VALID,0,VALID,24.1032,VALID,295,VALID,0,
2012-05-17, 00:34:04,VALID,1008.18,VALID,0,VALID,104,VALID,0.112112,VALID,24.1227,VALID,295,VALID,0,
2012-05-17, 00:35:04,VALID,1008.17,VALID,0,VALID,104,VALID,0,VALID,24.1422,VALID,295,VALID,0,
2012-05-17, 00:36:04,VALID,1008.14,VALID,0,VALID,104,VALID,0.112112,VALID,24.1209,VALID,295,VALID,0,
2012-05-17, 00:37:04,VALID,1008.14,VALID,0,VALID,104,VALID,0,VALID,24.1422,VALID,295,VALID,0,
2012-05-17, 00:38:04,VALID,1008.17,VALID,0,VALID,104,VALID,0,VALID,24.1422,VALID,295,VALID,0,
2012-05-17, 00:39:04,VALID,1008.13,VALID,0,VALID,104,VALID,0,VALID,24.1617,VALID,295,VALID,0,
2012-05-17, 00:40:04,VALID,1008.12,VALID,0,VALID,104,VALID,0,VALID,24.1812,VALID,295,VALID,0,
2012-05-17, 00:41:04,VALID,1008.14,VALID,0,VALID,104,VALID,0,VALID,24.1617,VALID,295,VALID,0,
2012-05-17, 00:42:04,VALID,1008.08,VALID,0,VALID,104,VALID,0,VALID,24.1422,VALID,295,VALID,0,
2012-05-17, 00:43:04,VALID,1008.06,VALID,0,VALID,104,VALID,0,VALID,24.1422,VALID,295,VALID,0,
2012-05-17, 00:44:04,VALID,1008.05,VALID,0,VALID,104,VALID,0,VALID,24.1617,VALID,295,VALID,0,
2012-05-17, 00:45:04,VALID,1008.08,VALID,0,VALID,104,VALID,0,VALID,24.1422,VALID,295,VALID,0,
2012-05-17, 00:46:04,VALID,1008.08,VALID,0,VALID,104,VALID,0,VALID,24.1032,VALID,295,VALID,0,
2012-05-17, 00:47:04,VALID,1008.09,VALID,0,VALID,104,VALID,0,VALID,24.0643,VALID,295,VALID,0,
2012-05-17, 00:48:04,VALID,1008.06,VALID,0,VALID,104,VALID,0,VALID,24.0253,VALID,295,VALID,0,
2012-05-17, 00:49:04,VALID,1008.08,VALID,0,VALID,104,VALID,0,VALID,24.0058,VALID,295,VALID,0,
2012-05-17, 00:50:04,VALID,1008.08,VALID,0,VALID,104,VALID,0,VALID,24.0058,VALID,295,VALID,0,
2012-05-17, 00:51:04,VALID,1008.04,VALID,0,VALID,104,VALID,0,VALID,23.9863,VALID,295,VALID,0,
2012-05-17, 00:52:04,VALID,1008.07,VALID,0,VALID,104,VALID,0,VALID,23.965,VALID,295,VALID,0,
2012-05-17, 00:53:04,VALID,1008.07,VALID,0,VALID,104,VALID,0,VALID,23.9473,VALID,295,VALID,0,
2012-05-17, 00:54:04,VALID,1008.06,VALID,0,VALID,104,VALID,0,VALID,23.9473,VALID,295,VALID,0,
2012-05-17, 00:55:04,VALID,1008.04,VALID,0,VALID,104,VALID,0,VALID,23.9473,VALID,295,VALID,0,
2012-05-17, 00:56:04,VALID,1008.01,VALID,0,VALID,104,VALID,0,VALID,23.9278,VALID,295,VALID,0,
2012-05-17, 00:57:04,VALID,1007.97,VALID,0,VALID,104,VALID,0,VALID,23.9473,VALID,295,VALID,0,
2012-05-17, 00:58:04,VALID,1007.98,VALID,0,VALID,104,VALID,0,VALID,23.9278,VALID,295,VALID,0,
2012-05-17, 00:59:04,VALID,1007.96,VALID,0,VALID,104,VALID,0,VALID,23.9278,VALID,295,VALID,0,
2012-05-17, 01:00:04,VALID,1007.98,VALID,0,VALID,104,VALID,0,VALID,23.9065,VALID,295,VALID,0,
2012-05-17, 01:01:04,VALID,1007.93,VALID,0,VALID,104,VALID,0,VALID,23.8889,VALID,295,VALID,0,
2012-05-17, 01:02:04,VALID,1007.94,VALID,0,VALID,104,VALID,0,VALID,23.8676,VALID,295,VALID,0,
2012-05-17, 01:03:04,VALID,1007.94,VALID,0,VALID,104,VALID,0,VALID,23.8694,VALID,295,VALID,0,
2012-05-17, 01:04:04,VALID,1007.95,VALID,0,VALID,104,VALID,0,VALID,23.8499,VALID,295,VALID,0,
2012-05-17, 01:05:04,VALID,1007.98,VALID,0,VALID,104,VALID,0,VALID,23.8304,VALID,295,VALID,0,
2012-05-17, 01:06:04,VALID,1007.96,VALID,0,VALID,104,VALID,0,VALID,23.8304,VALID,295,VALID,0,
2012-05-17, 01:07:04,VALID,1007.95,VALID,0,VALID,104,VALID,0,VALID,23.8304,VALID,295,VALID,0,
2012-05-17, 01:08:04,VALID,1007.96,VALID,0,VALID,104,VALID,0,VALID,23.8304,VALID,295,VALID,0,
2012-05-17, 01:09:04,VALID,1007.97,VALID,0,VALID,104,VALID,0,VALID,23.8304,VALID,295,VALID,0,
2012-05-17, 01:10:04,VALID,1007.96,VALID,0,VALID,104,VALID,0,VALID,23.8109,VALID,295,VALID,0,
2012-05-17, 01:11:04,VALID,1007.98,VALID,0,VALID,104,VALID,0,VALID,23.7701,VALID,295,VALID,0,
2012-05-17, 01:12:04,VALID,1007.97,VALID,0,VALID,104,VALID,0,VALID,23.7914,VALID,295,VALID,0,
2012-05-17, 01:13:04,VALID,1007.97,VALID,0,VALID,104,VALID,0,VALID,23.7914,VALID,295,VALID,0,
2012-05-17, 01:14:04,VALID,1007.96,VALID,0,VALID,104,VALID,0,VALID,23.7507,VALID,295,VALID,0,
2012-05-17, 01:15:04,VALID,1007.95,VALID,0,VALID,104,VALID,0,VALID,23.772,VALID,295,VALID,0,
2012-05-17, 01:16:04,VALID,1007.97,VALID,0,VALID,104,VALID,0,VALID,23.7525,VALID,295,VALID,0,
2012-05-17, 01:17:04,VALID,1007.97,VALID,0,VALID,104,VALID,0,VALID,23.7525,VALID,295,VALID,0,
2012-05-17, 01:18:04,VALID,1008,VALID,0,VALID,104,VALID,0,VALID,23.772,VALID,295,VALID,0,
2012-05-17, 01:19:04,VALID,1007.99,VALID,0,VALID,104,VALID,0,VALID,23.7525,VALID,295,VALID,0,
2012-05-17, 01:20:04,VALID,1008.02,VALID,0,VALID,104,VALID,0,VALID,23.7543,VALID,295,VALID,0,
2012-05-17, 01:21:04,VALID,1008.02,VALID,0,VALID,104,VALID,0,VALID,23.733,VALID,295,VALID,0,
2012-05-17, 01:22:04,VALID,1008,VALID,0,VALID,104,VALID,0,VALID,23.733,VALID,295,VALID,0,
2012-05-17, 01:23:04,VALID,1007.98,VALID,0,VALID,104,VALID,0,VALID,23.7135,VALID,295,VALID,0,
2012-05-17, 01:24:04,VALID,1007.97,VALID,0,VALID,104,VALID,0,VALID,23.7135,VALID,295,VALID,0,
2012-05-17, 01:25:04,VALID,1007.99,VALID,0,VALID,104,VALID,0,VALID,23.694,VALID,295,VALID,0,
2012-05-17, 01:26:04,VALID,1007.94,VALID,0,VALID,104,VALID,0,VALID,23.694,VALID,295,VALID,0,
2012-05-17, 01:27:04,VALID,1007.96,VALID,0,VALID,104,VALID,0,VALID,23.6745,VALID,295,VALID,0,
2012-05-17, 01:28:04,VALID,1007.96,VALID,0,VALID,104,VALID,0,VALID,23.694,VALID,295,VALID,0,
2012-05-17, 01:29:04,VALID,1007.96,VALID,0,VALID,104,VALID,0,VALID,23.655,VALID,295,VALID,0,
2012-05-17, 01:30:04,VALID,1007.97,VALID,0,VALID,104,VALID,0,VALID,23.6356,VALID,295,VALID,0,
2012-05-17, 01:31:04,VALID,1007.95,VALID,0,VALID,104,VALID,0,VALID,23.6356,VALID,295,VALID,0,
2012-05-17, 01:32:04,VALID,1007.93,VALID,0,VALID,104,VALID,0,VALID,23.655,VALID,295,VALID,0,
2012-05-17, 01:33:04,VALID,1007.92,VALID,0,VALID,104,VALID,0,VALID,23.655,VALID,295,VALID,0,
2012-05-17, 01:34:04,VALID,1007.87,VALID,0,VALID,104,VALID,0,VALID,23.6356,VALID,295,VALID,0,
2012-05-17, 01:35:04,VALID,1007.86,VALID,0,VALID,104,VALID,0,VALID,23.6161,VALID,295,VALID,0,
2012-05-17, 01:36:04,VALID,1007.85,VALID,0,VALID,104,VALID,0,VALID,23.6161,VALID,295,VALID,0,
2012-05-17, 01:37:04,VALID,1007.83,VALID,0,VALID,104,VALID,0,VALID,23.5966,VALID,295,VALID,0,
2012-05-17, 01:38:04,VALID,1007.8,VALID,0,VALID,104,VALID,0,VALID,23.5771,VALID,295,VALID,0.263672,
2012-05-17, 01:39:04,VALID,1007.8,VALID,0,VALID,104,VALID,0.112112,VALID,23.5558,VALID,295,VALID,0.200391,
2012-05-17, 01:40:04,VALID,1007.78,VALID,0,VALID,104,VALID,0,VALID,23.5576,VALID,295,VALID,0.00507812,
2012-05-17, 01:41:04,VALID,1007.79,VALID,0,VALID,104,VALID,0,VALID,23.5363,VALID,295,VALID,0.0242187,
2012-05-17, 01:42:04,VALID,1007.79,VALID,0,VALID,104,VALID,0,VALID,23.5363,VALID,295,VALID,0,
2012-05-17, 01:43:04,VALID,1007.79,VALID,0,VALID,104,VALID,0,VALID,23.5576,VALID,295,VALID,0.0261719,
2012-05-17, 01:44:04,VALID,1007.8,VALID,0,VALID,104,VALID,0,VALID,23.5186,VALID,295,VALID,0.253125,
2012-05-17, 01:45:04,VALID,1007.82,VALID,0,VALID,104,VALID,0,VALID,23.5186,VALID,295,VALID,0.299219,
2012-05-17, 01:46:04,VALID,1007.81,VALID,0,VALID,104,VALID,0,VALID,23.5186,VALID,295,VALID,0.330469,
2012-05-17, 01:47:04,VALID,1007.8,VALID,0,VALID,104,VALID,0,VALID,23.5186,VALID,322,VALID,0.617969,
2012-05-17, 01:48:04,VALID,1007.77,VALID,0,VALID,104,VALID,0,VALID,23.5576,VALID,335,VALID,0.411719,
2012-05-17, 01:49:04,VALID,1007.76,VALID,0,VALID,104,VALID,0,VALID,23.5363,VALID,334,VALID,0.117969,
2012-05-17, 01:50:04,VALID,1007.77,VALID,0,VALID,104,VALID,0,VALID,23.5381,VALID,335,VALID,0.226563,
2012-05-17, 01:51:04,VALID,1007.75,VALID,0,VALID,104,VALID,0,VALID,23.5381,VALID,334,VALID,0.219531,
2012-05-17, 01:52:04,VALID,1007.74,VALID,0,VALID,104,VALID,0,VALID,23.5381,VALID,334,VALID,0.116016,
2012-05-17, 01:53:04,VALID,1007.75,VALID,0,VALID,104,VALID,0,VALID,23.5363,VALID,334,VALID,0.0628906,
2012-05-17, 01:54:04,VALID,1007.73,VALID,0,VALID,104,VALID,0,VALID,23.5381,VALID,335,VALID,0,
2012-05-17, 01:55:04,VALID,1007.75,VALID,0,VALID,104,VALID,0,VALID,23.5186,VALID,334,VALID,0,
2012-05-17, 01:56:04,VALID,1007.74,VALID,0,VALID,104,VALID,0,VALID,23.5186,VALID,334,VALID,0,
2012-05-17, 01:57:04,VALID,1007.76,VALID,0,VALID,104,VALID,0,VALID,23.4974,VALID,334,VALID,0,
2012-05-17, 01:58:04,VALID,1007.73,VALID,0,VALID,104,VALID,0.112112,VALID,23.5186,VALID,334,VALID,0,
2012-05-17, 01:59:04,VALID,1007.73,VALID,0,VALID,104,VALID,0,VALID,23.5186,VALID,334,VALID,0,
2012-05-17, 02:00:04,VALID,1007.71,VALID,0,VALID,104,VALID,0,VALID,23.5186,VALID,334,VALID,0,
2012-05-17, 02:01:04,VALID,1007.7,VALID,0,VALID,104,VALID,0,VALID,23.5186,VALID,334,VALID,0,
2012-05-17, 02:02:04,VALID,1007.67,VALID,0,VALID,104,VALID,0,VALID,23.4992,VALID,334,VALID,0,
2012-05-17, 02:03:04,VALID,1007.69,VALID,0,VALID,104,VALID,0,VALID,23.4992,VALID,334,VALID,0,
2012-05-17, 02:04:04,VALID,1007.68,VALID,0,VALID,104,VALID,0,VALID,23.4779,VALID,334,VALID,0,
2012-05-17, 02:05:04,VALID,1007.66,VALID,0,VALID,104,VALID,0,VALID,23.4584,VALID,334,VALID,0,
2012-05-17, 02:06:04,VALID,1007.63,VALID,0,VALID,104,VALID,0,VALID,23.4602,VALID,334,VALID,0,
2012-05-17, 02:07:04,VALID,1007.6,VALID,0,VALID,104,VALID,0,VALID,23.4389,VALID,334,VALID,0,
2012-05-17, 02:08:04,VALID,1007.61,VALID,0,VALID,104,VALID,0,VALID,23.4407,VALID,334,VALID,0,
2012-05-17, 02:09:04,VALID,1007.58,VALID,0,VALID,104,VALID,0,VALID,23.4602,VALID,334,VALID,0,
2012-05-17, 02:10:04,VALID,1007.59,VALID,0,VALID,104,VALID,0,VALID,23.4584,VALID,334,VALID,0,
2012-05-17, 02:11:04,VALID,1007.58,VALID,0,VALID,104,VALID,0,VALID,23.4797,VALID,334,VALID,0,
2012-05-17, 02:12:04,VALID,1007.56,VALID,0,VALID,104,VALID,0,VALID,23.4797,VALID,334,VALID,0,
2012-05-17, 02:13:04,VALID,1007.55,VALID,0,VALID,104,VALID,0,VALID,23.4584,VALID,334,VALID,0,
2012-05-17, 02:14:04,VALID,1007.56,VALID,0,VALID,104,VALID,0,VALID,23.4797,VALID,334,VALID,0,
2012-05-17, 02:15:04,VALID,1007.59,VALID,0,VALID,104,VALID,0,VALID,23.4797,VALID,334,VALID,0,
2012-05-17, 02:16:04,VALID,1007.6,VALID,0,VALID,104,VALID,0,VALID,23.4797,VALID,334,VALID,0,
2012-05-17, 02:17:04,VALID,1007.57,VALID,0,VALID,104,VALID,0,VALID,23.4602,VALID,334,VALID,0,
2012-05-17, 02:18:04,VALID,1007.54,VALID,0,VALID,104,VALID,0,VALID,23.4407,VALID,334,VALID,0,
2012-05-17, 02:19:04,VALID,1007.54,VALID,0,VALID,104,VALID,0,VALID,23.4407,VALID,334,VALID,0,
2012-05-17, 02:20:04,VALID,1007.52,VALID,0,VALID,104,VALID,0,VALID,23.4407,VALID,334,VALID,0,
2012-05-17, 02:21:04,VALID,1007.5,VALID,0,VALID,104,VALID,0,VALID,23.4,VALID,334,VALID,0,
2012-05-17, 02:22:04,VALID,1007.47,VALID,0,VALID,104,VALID,0,VALID,23.4212,VALID,335,VALID,0,
2012-05-17, 02:23:04,VALID,1007.47,VALID,0,VALID,104,VALID,0,VALID,23.3805,VALID,334,VALID,0,
2012-05-17, 02:24:04,VALID,1007.42,VALID,0,VALID,104,VALID,0,VALID,23.3805,VALID,334,VALID,0,
2012-05-17, 02:25:04,VALID,1007.39,VALID,0,VALID,104,VALID,0,VALID,23.3823,VALID,334,VALID,0,
2012-05-17, 02:26:04,VALID,1007.37,VALID,0,VALID,104,VALID,0,VALID,23.3823,VALID,334,VALID,0,
2012-05-17, 02:27:04,VALID,1007.32,VALID,0,VALID,104,VALID,0,VALID,23.4389,VALID,334,VALID,0,
2012-05-17, 02:28:04,VALID,1007.29,VALID,0,VALID,104,VALID,0,VALID,23.4797,VALID,334,VALID,0,
2012-05-17, 02:29:04,VALID,1007.23,VALID,0,VALID,104,VALID,0,VALID,23.4992,VALID,334,VALID,0,
2012-05-17, 02:30:04,VALID,1007.2,VALID,0,VALID,104,VALID,0,VALID,23.4584,VALID,334,VALID,0,
2012-05-17, 02:31:04,VALID,1007.19,VALID,0,VALID,104,VALID,0,VALID,23.4797,VALID,334,VALID,0,
2012-05-17, 02:32:04,VALID,1007.17,VALID,0,VALID,104,VALID,0,VALID,23.4602,VALID,334,VALID,0,
2012-05-17, 02:33:04,VALID,1007.15,VALID,0,VALID,104,VALID,0,VALID,23.4602,VALID,334,VALID,0,
2012-05-17, 02:34:04,VALID,1007.15,VALID,0,VALID,104,VALID,0,VALID,23.4602,VALID,334,VALID,0,
2012-05-17, 02:35:04,VALID,1007.15,VALID,0,VALID,104,VALID,0,VALID,23.4602,VALID,334,VALID,0,
2012-05-17, 02:36:04,VALID,1007.11,VALID,0,VALID,104,VALID,0,VALID,23.4407,VALID,334,VALID,0,
2012-05-17, 02:37:05,VALID,1007.1,VALID,0,VALID,104,VALID,0,VALID,23.4407,VALID,334,VALID,0,
2012-05-17, 02:38:05,VALID,1007.08,VALID,0,VALID,104,VALID,0,VALID,23.4407,VALID,334,VALID,0,
2012-05-17, 02:39:05,VALID,1007.07,VALID,0,VALID,104,VALID,0,VALID,23.4602,VALID,334,VALID,0,
2012-05-17, 02:40:05,VALID,1007.04,VALID,0,VALID,104,VALID,0,VALID,23.4389,VALID,334,VALID,0,
2012-05-17, 02:41:05,VALID,1007.03,VALID,0,VALID,104,VALID,0,VALID,23.4602,VALID,334,VALID,0,
2012-05-17, 02:42:05,VALID,1007.02,VALID,0,VALID,104,VALID,0,VALID,23.4797,VALID,334,VALID,0,
2012-05-17, 02:43:05,VALID,1006.99,VALID,0,VALID,104,VALID,0,VALID,23.4797,VALID,334,VALID,0,
2012-05-17, 02:44:05,VALID,1007,VALID,0,VALID,104,VALID,0,VALID,23.5009,VALID,334,VALID,0,
2012-05-17, 02:45:05,VALID,1007.01,VALID,0,VALID,104,VALID,0,VALID,23.4797,VALID,334,VALID,0,
2012-05-17, 02:46:05,VALID,1006.97,VALID,0,VALID,104,VALID,0,VALID,23.4602,VALID,334,VALID,0,
2012-05-17, 02:47:05,VALID,1006.99,VALID,0,VALID,104,VALID,0,VALID,23.4407,VALID,334,VALID,0,
2012-05-17, 02:48:05,VALID,1006.95,VALID,0,VALID,104,VALID,0,VALID,23.4212,VALID,334,VALID,0,
2012-05-17, 02:49:05,VALID,1006.94,VALID,0,VALID,104,VALID,0,VALID,23.4017,VALID,334,VALID,0,
2012-05-17, 02:50:05,VALID,1006.9,VALID,0,VALID,104,VALID,0,VALID,23.3823,VALID,334,VALID,0,
2012-05-17, 02:51:05,VALID,1006.92,VALID,0,VALID,104,VALID,0,VALID,23.4017,VALID,334,VALID,0,
2012-05-17, 02:52:05,VALID,1006.89,VALID,0,VALID,104,VALID,0,VALID,23.3823,VALID,334,VALID,0,
2012-05-17, 02:53:05,VALID,1006.88,VALID,0,VALID,104,VALID,0,VALID,23.4017,VALID,334,VALID,0,
2012-05-17, 02:54:05,VALID,1006.87,VALID,0,VALID,104,VALID,0,VALID,23.3823,VALID,334,VALID,0,
2012-05-17, 02:55:05,VALID,1006.89,VALID,0,VALID,104,VALID,0,VALID,23.3628,VALID,334,VALID,0,
2012-05-17, 02:56:05,VALID,1006.85,VALID,0,VALID,104,VALID,0,VALID,23.4017,VALID,334,VALID,0,
2012-05-17, 02:57:05,VALID,1006.86,VALID,0,VALID,104,VALID,0,VALID,23.4017,VALID,334,VALID,0,
2012-05-17, 02:58:05,VALID,1006.83,VALID,0,VALID,104,VALID,0,VALID,23.3823,VALID,334,VALID,0,
2012-05-17, 02:59:05,VALID,1006.83,VALID,0,VALID,104,VALID,0,VALID,23.3628,VALID,334,VALID,0,
2012-05-17, 03:00:05,VALID,1006.84,VALID,0,VALID,104,VALID,0,VALID,23.3628,VALID,334,VALID,0,
2012-05-17, 03:01:05,VALID,1006.83,VALID,0,VALID,104,VALID,0,VALID,23.3628,VALID,334,VALID,0,
2012-05-17, 03:02:05,VALID,1006.83,VALID,0,VALID,104,VALID,0,VALID,23.3238,VALID,334,VALID,0,
2012-05-17, 03:03:05,VALID,1006.85,VALID,0,VALID,104,VALID,0,VALID,23.3238,VALID,334,VALID,0,
2012-05-17, 03:04:05,VALID,1006.81,VALID,0,VALID,104,VALID,0,VALID,23.3043,VALID,334,VALID,0,
2012-05-17, 03:05:05,VALID,1006.83,VALID,0,VALID,104,VALID,0,VALID,23.2848,VALID,334,VALID,0,
2012-05-17, 03:06:05,VALID,1006.81,VALID,0,VALID,104,VALID,0,VALID,23.3061,VALID,334,VALID,0,
2012-05-17, 03:07:05,VALID,1006.83,VALID,0,VALID,104,VALID,0,VALID,23.2654,VALID,334,VALID,0,
2012-05-17, 03:08:05,VALID,1006.83,VALID,0,VALID,104,VALID,0,VALID,23.2654,VALID,334,VALID,0,
2012-05-17, 03:09:05,VALID,1006.8,VALID,0,VALID,104,VALID,0,VALID,23.2459,VALID,334,VALID,0,
2012-05-17, 03:10:05,VALID,1006.84,VALID,0,VALID,104,VALID,0,VALID,23.2264,VALID,334,VALID,0,
2012-05-17, 03:11:05,VALID,1006.83,VALID,0,VALID,104,VALID,0,VALID,23.2459,VALID,334,VALID,0.194531,
2012-05-17, 03:12:05,VALID,1006.78,VALID,0,VALID,104,VALID,0,VALID,23.2459,VALID,334,VALID,0.192578,
2012-05-17, 03:13:05,VALID,1006.8,VALID,0,VALID,104,VALID,0,VALID,23.2459,VALID,334,VALID,0.172266,
2012-05-17, 03:14:05,VALID,1006.76,VALID,0,VALID,104,VALID,0,VALID,23.2459,VALID,334,VALID,0.211719,
2012-05-17, 03:15:05,VALID,1006.78,VALID,0,VALID,104,VALID,0,VALID,23.2264,VALID,334,VALID,0.258203,
2012-05-17, 03:16:05,VALID,1006.79,VALID,0,VALID,104,VALID,0,VALID,23.2069,VALID,334,VALID,0.458203,
2012-05-17, 03:17:05,VALID,1006.8,VALID,0,VALID,104,VALID,0,VALID,23.1874,VALID,334,VALID,0.442969,
2012-05-17, 03:18:05,VALID,1006.82,VALID,0,VALID,104,VALID,0,VALID,23.1874,VALID,334,VALID,0.460156,
2012-05-17, 03:19:05,VALID,1006.84,VALID,0,VALID,104,VALID,0,VALID,23.1874,VALID,334,VALID,0.490625,
2012-05-17, 03:20:05,VALID,1006.81,VALID,0,VALID,104,VALID,0,VALID,23.1467,VALID,334,VALID,0.548437,
2012-05-17, 03:21:05,VALID,1006.84,VALID,0,VALID,104,VALID,0,VALID,23.1485,VALID,334,VALID,0.405078,
2012-05-17, 03:22:05,VALID,1006.83,VALID,0,VALID,104,VALID,0,VALID,23.1485,VALID,334,VALID,0.40625,
2012-05-17, 03:23:05,VALID,1006.79,VALID,0,VALID,104,VALID,0.112112,VALID,23.1485,VALID,334,VALID,0.353125,
2012-05-17, 03:24:05,VALID,1006.76,VALID,0,VALID,104,VALID,0,VALID,23.1467,VALID,334,VALID,0.130469,
2012-05-17, 03:25:05,VALID,1006.74,VALID,0,VALID,104,VALID,0,VALID,23.1095,VALID,334,VALID,0,
2012-05-17, 03:26:05,VALID,1006.75,VALID,0,VALID,104,VALID,0.112112,VALID,23.0511,VALID,334,VALID,0,
2012-05-17, 03:27:05,VALID,1006.76,VALID,0,VALID,104,VALID,0,VALID,23.0316,VALID,334,VALID,0,
2012-05-17, 03:28:05,VALID,1006.74,VALID,0,VALID,104,VALID,0.112112,VALID,23.0316,VALID,334,VALID,0,
2012-05-17, 03:29:05,VALID,1006.74,VALID,0,VALID,104,VALID,0,VALID,22.9926,VALID,334,VALID,0,
2012-05-17, 03:30:05,VALID,1006.74,VALID,0,VALID,104,VALID,0.112112,VALID,22.9926,VALID,334,VALID,0,
2012-05-17, 03:31:05,VALID,1006.76,VALID,0,VALID,104,VALID,0,VALID,22.9731,VALID,334,VALID,0,
2012-05-17, 03:32:05,VALID,1006.76,VALID,0,VALID,104,VALID,0,VALID,22.9536,VALID,334,VALID,0,
2012-05-17, 03:33:05,VALID,1006.79,VALID,0,VALID,104,VALID,0,VALID,22.9731,VALID,334,VALID,0,
2012-05-17, 03:34:05,VALID,1006.78,VALID,0,VALID,104,VALID,0.112112,VALID,22.9536,VALID,334,VALID,0,
2012-05-17, 03:35:05,VALID,1006.79,VALID,0,VALID,104,VALID,0,VALID,22.9342,VALID,334,VALID,0,
2012-05-17, 03:36:05,VALID,1006.79,VALID,0,VALID,104,VALID,0,VALID,22.9342,VALID,334,VALID,0,
2012-05-17, 03:37:05,VALID,1006.79,VALID,0,VALID,104,VALID,0,VALID,22.9342,VALID,334,VALID,0,
2012-05-17, 03:38:05,VALID,1006.8,VALID,0,VALID,104,VALID,0.112112,VALID,22.9342,VALID,334,VALID,0,
2012-05-17, 03:39:05,VALID,1006.8,VALID,0,VALID,104,VALID,0,VALID,22.8935,VALID,334,VALID,0,
2012-05-17, 03:40:05,VALID,1006.8,VALID,0,VALID,104,VALID,0,VALID,22.9342,VALID,334,VALID,0,
2012-05-17, 03:41:05,VALID,1006.83,VALID,0,VALID,104,VALID,0,VALID,22.9536,VALID,334,VALID,0,
2012-05-17, 03:42:05,VALID,1006.82,VALID,0,VALID,104,VALID,0,VALID,22.9324,VALID,334,VALID,0,
2012-05-17, 03:43:05,VALID,1006.83,VALID,0,VALID,104,VALID,0.112112,VALID,22.9519,VALID,334,VALID,0,
2012-05-17, 03:44:05,VALID,1006.84,VALID,0,VALID,104,VALID,0,VALID,22.9129,VALID,334,VALID,0,
2012-05-17, 03:45:05,VALID,1006.85,VALID,0,VALID,104,VALID,0,VALID,22.9342,VALID,334,VALID,0,
2012-05-17, 03:46:05,VALID,1006.88,VALID,0,VALID,104,VALID,0.112112,VALID,22.9342,VALID,334,VALID,0,
2012-05-17, 03:47:05,VALID,1006.93,VALID,0,VALID,104,VALID,0,VALID,22.9129,VALID,334,VALID,0,
2012-05-17, 03:48:05,VALID,1006.94,VALID,0,VALID,104,VALID,0,VALID,22.9147,VALID,334,VALID,0,
2012-05-17, 03:49:05,VALID,1006.97,VALID,0,VALID,104,VALID,0.112112,VALID,22.8952,VALID,334,VALID,0,
2012-05-17, 03:50:05,VALID,1006.98,VALID,0,VALID,104,VALID,0,VALID,22.9147,VALID,334,VALID,0,
2012-05-17, 03:51:05,VALID,1007.01,VALID,0,VALID,104,VALID,0.112112,VALID,22.9147,VALID,334,VALID,0.264453,
2012-05-17, 03:52:05,VALID,1007.03,VALID,0,VALID,104,VALID,0,VALID,22.9129,VALID,334,VALID,0.231641,
2012-05-17, 03:53:05,VALID,1007,VALID,0,VALID,104,VALID,0,VALID,22.9147,VALID,334,VALID,0.169141,
2012-05-17, 03:54:05,VALID,1007.06,VALID,0,VALID,104,VALID,0,VALID,22.8952,VALID,334,VALID,0.118359,
2012-05-17, 03:55:05,VALID,1007.07,VALID,0,VALID,104,VALID,0,VALID,22.8757,VALID,334,VALID,0.132422,
2012-05-17, 03:56:05,VALID,1007.09,VALID,0,VALID,104,VALID,0,VALID,22.8757,VALID,334,VALID,0.185937,
2012-05-17, 03:57:05,VALID,1007.11,VALID,0,VALID,104,VALID,0,VALID,22.835,VALID,334,VALID,0.158594,
2012-05-17, 03:58:05,VALID,1007.11,VALID,0,VALID,104,VALID,0,VALID,22.7978,VALID,334,VALID,0.0105469,
2012-05-17, 03:59:05,VALID,1007.13,VALID,0,VALID,104,VALID,0.112112,VALID,22.7571,VALID,334,VALID,0,
2012-05-17, 04:00:05,VALID,1007.13,VALID,0,VALID,104,VALID,0,VALID,22.7783,VALID,334,VALID,0.263672,
2012-05-17, 04:01:05,VALID,1007.08,VALID,0,VALID,104,VALID,0,VALID,22.7783,VALID,334,VALID,0.251172,
2012-05-17, 04:02:05,VALID,1007.08,VALID,0,VALID,104,VALID,0,VALID,22.7783,VALID,334,VALID,0.223828,
2012-05-17, 04:03:05,VALID,1007.07,VALID,0,VALID,104,VALID,0,VALID,22.7588,VALID,334,VALID,0.0894531,
2012-05-17, 04:04:05,VALID,1007.06,VALID,0,VALID,104,VALID,0,VALID,22.7783,VALID,334,VALID,0.314063,
2012-05-17, 04:05:05,VALID,1007.06,VALID,0,VALID,104,VALID,0.112112,VALID,22.7783,VALID,334,VALID,0.0765625,